Weather History for Wright-Patt AFB, OH

Change the Weather History Date:

Sunday, December 16, 2012

  Actual Average Record
Temperature  
Mean Temperature 51 °F -  
Max Temperature 59 °F 38 °F 59 °F (2012)
Min Temperature 43 °F 23 °F 16 °F (2010)
Degree Days  
Heating Degree Days 14    
Growing Degree Days 1 (Base 50)    
Moisture  
Dew Point 44 °F    
Average Humidity 73    
Maximum Humidity 91    
Minimum Humidity 58    
Precipitation  
Precipitation 0.00 in - - ()
Sea Level Pressure  
Sea Level Pressure 29.73 in    
Wind  
Wind Speed 11 mph (SSW)    
Max Wind Speed 18 mph    
Max Gust Speed 26 mph    
Visibility 10 miles    
Events      
Averages and records for this station are not official NWS values.
T = Trace of Precipitation, MM = Missing Value Source: NWS Daily Summary

Daily Weather History Graph

Daily Weather History Graph

Search for Another Location

Airport:

Trip Planner

Search our weather history database for the weather conditions in past years. The results will help you decide how hot, cold, wet, or windy it might be!

Date:

Astronomy

Dec. 16, 2012 Rise Set
Actual Time 7:51 AM EST 5:12 PM EST
Civil Twilight 7:20 AM EST 5:43 PM EST
Nautical Twilight 6:46 AM EST 6:17 PM EST
Astronomical Twilight 6:14 AM EST 6:50 PM EST
Moon 10:24 AM EST (12/16) 9:25 PM EST (12/16)
Length of Visible Light 10h 22m
Length of Day
9h 21m
Waxing Crescent, 16% of the Moon is Illuminated
Dec 16
Waxing Crescent
Dec 20
First Quarter
Dec 28
Full
Jan 4
Last Quarter
Jan 11
New

Hourly Weather History & Observations

Time (EST) Temp. Windchill Dew Point Humidity Pressure Visibility Wind Dir Wind Speed Gust Speed Precip Events Conditions
12:55 AM 52.7 °F - 40.8 °F 64% 29.77 in 10.0 mi South 13.8 mph - N/A   Mostly Cloudy
1:55 AM 51.6 °F - 41.9 °F 69% 29.76 in 10.0 mi South 11.5 mph - N/A   Partly Cloudy
2:55 AM 51.6 °F - 43.0 °F 72% 29.77 in 10.0 mi SSW 12.7 mph - N/A   Scattered Clouds
3:55 AM 53.6 °F - 42.6 °F 66% 29.76 in 10.0 mi South 11.5 mph - N/A   Overcast
4:32 AM 53.6 °F - 42.8 °F 67% 29.75 in 10.0 mi South 12.7 mph - N/A   Mostly Cloudy
4:40 AM 53.6 °F - 42.8 °F 67% 29.75 in 10.0 mi South 11.5 mph - N/A   Mostly Cloudy
4:55 AM 53.4 °F - 43.7 °F 70% 29.75 in 10.0 mi South 12.7 mph - N/A   Overcast
5:12 AM 53.6 °F - 44.6 °F 72% 29.75 in 10.0 mi South 9.2 mph - N/A   Mostly Cloudy
5:22 AM 51.8 °F - 44.6 °F 76% 29.75 in 10.0 mi South 8.1 mph - N/A   Mostly Cloudy
5:55 AM 52.7 °F - 44.8 °F 74% 29.75 in 10.0 mi South 8.1 mph - N/A   Scattered Clouds
6:37 AM 51.8 °F - 44.6 °F 76% 29.74 in 10.0 mi South 11.5 mph - N/A   Mostly Cloudy
6:40 AM 51.8 °F - 44.6 °F 76% 29.74 in 10.0 mi SSE 11.5 mph - N/A   Mostly Cloudy
6:55 AM 52.7 °F - 45.1 °F 75% 29.73 in 10.0 mi SSE 9.2 mph - N/A   Mostly Cloudy
7:36 AM 51.8 °F - 46.4 °F 82% 29.74 in 10.0 mi South 6.9 mph - N/A   Mostly Cloudy
7:40 AM 51.8 °F - 46.4 °F 82% 29.74 in 10.0 mi South 6.9 mph - N/A   Mostly Cloudy
7:55 AM 51.1 °F - 45.7 °F 82% 29.75 in 10.0 mi South 4.6 mph - N/A   Mostly Cloudy
8:20 AM 51.8 °F - 46.4 °F 82% 29.75 in 10.0 mi South 5.8 mph - N/A   Mostly Cloudy
8:45 AM 51.8 °F - 46.4 °F 82% 29.74 in 10.0 mi SSE 6.9 mph - N/A   Mostly Cloudy
8:55 AM 52.5 °F - 47.3 °F 82% 29.74 in 10.0 mi South 5.8 mph - N/A   Mostly Cloudy
9:39 AM 55.4 °F - 48.2 °F 77% 29.74 in 10.0 mi South 6.9 mph - N/A   Overcast
9:55 AM 56.1 °F - 49.1 °F 77% 29.74 in 10.0 mi South 8.1 mph - N/A   Overcast
10:55 AM 58.8 °F - 48.4 °F 68% 29.74 in 10.0 mi SSW 18.4 mph 25.3 mph N/A   Overcast
11:36 AM 59.0 °F - 46.4 °F 63% 29.73 in 10.0 mi SSW 17.3 mph - N/A   Mostly Cloudy
11:55 AM 59.2 °F - 46.9 °F 64% 29.72 in 10.0 mi SW 15.0 mph 26.5 mph N/A   Mostly Cloudy
12:55 PM 59.2 °F - 45.5 °F 60% 29.69 in 10.0 mi SSW 15.0 mph - N/A   Mostly Cloudy
1:55 PM 59.7 °F - 45.0 °F 58% 29.67 in 10.0 mi SSW 13.8 mph - N/A   Mostly Cloudy
2:55 PM 59.0 °F - 44.4 °F 58% 29.66 in 10.0 mi SSW 12.7 mph - N/A   Mostly Cloudy
3:55 PM 57.9 °F - 43.9 °F 60% 29.66 in 10.0 mi SSW 9.2 mph - N/A   Overcast
4:55 PM 56.5 °F - 43.5 °F 62% 29.67 in 10.0 mi SSW 11.5 mph - N/A   Overcast
5:55 PM 54.5 °F - 43.3 °F 66% 29.68 in 10.0 mi SW 9.2 mph - N/A   Mostly Cloudy
6:55 PM 52.0 °F - 41.9 °F 69% 29.68 in 10.0 mi WSW 5.8 mph - N/A   Overcast
7:55 PM 52.3 °F - 42.3 °F 69% 29.70 in 10.0 mi SW 8.1 mph - N/A   Overcast
8:55 PM 46.0 °F 43.1 °F 41.0 °F 83% 29.70 in 10.0 mi SW 5.8 mph - N/A   Scattered Clouds
9:55 PM 43.0 °F 40.3 °F 40.5 °F 91% 29.73 in 10.0 mi SSW 4.6 mph - N/A   Mostly Cloudy
10:55 PM 43.7 °F 42.1 °F 40.8 °F 90% 29.75 in 10.0 mi SW 3.5 mph - N/A   Partly Cloudy
11:55 PM 43.2 °F - 40.3 °F 90% 29.75 in 10.0 mi Calm Calm - N/A   Partly Cloudy